Location: Champ-Richard
(44.2509°N, 6.6781°E)
Time: 05:02:08
(UTC+00:00)

Daily predictions for brighter satellites

Satellite Brightness Start Highest point End
(mag) Time Altitude Azimuth Time Altitude Azimuth Time Altitude Azimuth
Geosat 4.1 00:05:21 61° W 00:05:21 61° W 00:10:04 10° NNW
Cosmos 2360 Rocket 3.8 00:05:54 10° NW 00:09:32 21° W 00:09:32 21° W
Nadezhda 1 Rocket 4.0 00:03:44 10° N 00:10:11 88° E 00:11:32 59° S
Cosmos 1666 3.5 00:12:13 49° NNE 00:12:13 49° NNE 00:15:08 10° NNE
Cosmos 1862 Rocket 3.9 00:08:27 10° NNW 00:12:10 57° NW 00:12:10 57° NW
Cosmos 1980 4.2 00:07:45 10° NNW 00:13:21 55° ENE 00:15:18 37° ESE
Cosmos 1386 Rocket 4.5 00:13:24 60° S 00:14:42 89° WNW 00:21:09 10° N
Resurs 1-4 Rocket 3.5 00:13:44 10° NE 00:18:10 26° E 00:19:09 25° ESE
USA 229 DEB 3.8 00:10:46 10° NW 00:18:10 82° SW 00:21:08 42° SSE
USA 229 3.8 00:10:52 10° NW 00:18:16 83° SW 00:21:16 42° SSE
Cosmos 2322 4.4 00:13:53 10° NW 00:18:54 39° W 00:18:54 39° W
Lacrosse 5 3.2 00:21:12 26° ESE 00:21:12 26° ESE 00:24:32 10° ENE
Cosmos 1110 Rocket 4.1 00:18:22 10° NNW 00:23:33 59° WSW 00:23:33 59° WSW
Cosmos 1703 Rocket 3.9 00:22:33 10° N 00:26:49 58° ENE 00:26:49 58° ENE
Meteor 1-14 Rocket 4.2 00:26:17 60° WSW 00:26:59 66° WNW 00:32:33 10° N
Cosmos 2297 Rocket 2.3 00:31:41 56° SE 00:32:22 60° ESE 00:37:57 10° NNE
Cosmos 1331 Rocket 4.2 00:28:48 10° NNW 00:33:42 52° W 00:33:42 52° W
Cosmos 1536 3.7 00:35:32 43° ENE 00:35:32 43° ENE 00:39:01 10° NNE
Cosmos 2237 Rocket 2.2 00:31:59 10° NNW 00:37:42 78° ENE 00:39:17 49° SE
NOSS 3-1 (A) 4.1 00:30:57 10° NW 00:38:34 67° WSW 00:41:59 39° S
Meteor 1-13 Rocket 4.4 00:33:04 10° N 00:38:53 71° ENE 00:40:26 49° SE
CZ-4 R/B 3.8 00:34:09 10° NNE 00:39:09 76° ESE 00:39:36 69° SSE
ARGOS Delta rocket 3.6 00:35:06 10° NNE 00:39:53 83° E 00:40:01 81° SE
BREEZE-M DEB (TANK) 3.2 00:33:00 10° W 00:40:21 81° NNW 00:43:31 10° ENE
Cosmos 2181 Rocket 4.4 00:35:14 10° N 00:41:32 59° ENE 00:44:07 35° SE
Cosmos 2227 Rocket 2.4 00:42:17 50° SE 00:43:08 55° ESE 00:48:40 10° NNE
Cosmos 909 Rocket 4.4 00:41:37 45° SSE 00:43:13 56° ESE 00:50:24 10° NE
EO 1 Del DPAF 4.1 00:42:58 10° N 00:45:57 41° NW 00:45:57 41° NW
TSX-5 4.1 00:50:00 59° NNW 00:50:00 59° NNW 00:53:50 10° NNE
Cosmos 2242 Rocket 3.5 00:45:55 10° N 00:50:12 78° WNW 00:50:12 78° WNW
Cosmos 1544 3.7 00:52:00 54° NE 00:52:00 54° NE 00:54:59 10° NNE
ASTEX 1 3.3 00:51:42 66° SSE 00:52:22 81° E 00:57:17 10° N
Meteor 2-4 Rocket 4.3 00:47:43 10° NNW 00:53:20 44° W 00:54:04 42° WSW
CZ-2D R/B 2.6 00:50:29 10° NNE 00:55:45 54° E 00:57:06 43° SSE
ADEOS II 3.6 00:54:30 10° NE 00:58:59 28° E 01:01:02 22° SE
COSMOS 2428 4.0 00:56:19 10° NW 01:00:22 25° W 01:00:22 25° W
SL-16 R/B 3.2 00:55:52 10° NNW 01:01:17 45° ENE 01:06:41 10° SE
Cosmos 1269 Rocket 4.1 01:00:30 53° WSW 01:01:27 64° WNW 01:06:43 10° NNE
Cosmos 2219 Rocket 3.9 01:03:20 10° WNW 01:06:12 18° W 01:06:12 18° W
Timation 1 Rocket 4.4 01:06:26 48° S 01:08:03 68° ESE 01:14:01 10° NNE
Cosmos 2263 Rocket 4.3 01:07:40 12° SE 01:10:34 17° E 01:14:04 10° ENE
Cosmos 1869 Rocket 3.4 01:11:10 72° SW 01:11:31 78° W 01:16:01 10° N
STPSAT 2 (USA 217) 4.5 01:12:19 10° NNW 01:16:56 87° WSW 01:17:44 61° SSE
Cosmos 1743 2.6 01:19:32 87° E 01:19:32 87° E 01:23:23 10° N
Cosmos 1340 Rocket 4.1 01:20:53 28° WNW 01:20:53 28° WNW 01:24:09 10° NNW
Cosmos 1992 Rocket 3.9 01:18:21 10° NNW 01:23:37 89° WSW 01:25:38 39° SSE
NOSS 2-2 (E) 4.5 01:18:38 10° NW 01:24:19 73° SW 01:32:17 10° SSE
Helios 1A 3.9 01:27:31 35° W 01:27:31 35° W 01:30:59 10° NNW
Cosmos 2221 Rocket 4.0 01:25:21 10° N 01:29:52 63° E 01:31:41 34° SSE
Okean 3 3.7 01:25:54 10° NNW 01:30:05 51° W 01:30:10 51° W
Cosmos 2219 3.5 01:28:52 39° WSW 01:30:50 60° WNW 01:36:32 10° NNE
Okean 1-7 4.2 01:27:13 10° NNW 01:30:27 27° W 01:30:27 27° W
Timation 2 Rocket 3.8 01:31:17 42° SW 01:33:28 82° WNW 01:39:36 10° NNE
Cosmos 1975 4.0 01:34:17 29° SE 01:35:41 38° E 01:39:30 10° NNE
Cosmos 2344 4.3 01:34:47 22° SSE 01:38:56 39° ESE 01:45:49 10° NE
Cosmos 1461 4.4 01:39:45 25° SE 01:41:06 30° ESE 01:45:02 10° NE
UNK 3.8 01:41:38 48° SSW 01:42:39 60° W 01:47:18 10° NNW
Cosmos 1238 Rocket 3.7 01:43:34 27° ESE 01:44:16 30° E 01:47:13 10° NNE
SL-16 R/B 2.6 01:44:52 34° SSW 01:47:24 56° WSW 01:53:29 10° NNW
Cosmos 1674 Rocket 4.2 01:43:14 10° N 01:47:35 54° E 01:50:25 20° SSE
Cosmos 2184 Rocket 3.9 01:45:02 34° SSW 01:47:56 79° W 01:54:15 10° N
Helios 1B rocket 2.4 01:44:48 10° N 01:48:54 72° WNW 01:49:49 51° SW
ATLAS 5 CENTAUR R/B 3.2 01:44:44 10° WNW 01:49:48 30° WSW 01:50:05 30° WSW
IDEFIX/ARIANE 42P 3.4 01:45:03 10° NNE 01:50:00 44° E 01:53:13 20° SSE
Cosmos 2082 3.7 01:48:53 37° SSW 01:51:16 84° WNW 01:57:03 10° NNE
Cosmos 2154 Rocket 4.0 01:51:27 27° S 01:55:00 83° E 02:01:14 10° N
Meteor 1-29 3.0 01:52:39 10° NNE 01:55:57 66° ESE 01:56:32 52° SSE
Cosmos 2251 Rocket 3.5 01:54:37 37° SSW 01:56:44 75° WNW 02:02:03 10° NNE
Resurs 1-4 Rocket 2.7 01:53:08 10° N 01:58:09 43° WNW 02:00:13 30° WSW
Cosmos 1842 3.1 01:56:21 10° N 02:00:13 82° W 02:01:27 42° S
Lacrosse 5 2.2 02:00:23 28° WSW 02:02:56 59° NW 02:07:57 10° NE
Cosmos 2084 Rocket 4.2 01:59:59 10° NW 02:03:25 33° WSW 02:03:25 33° WSW
Cosmos 1378 Rocket 3.6 02:04:33 10° N 02:08:57 79° E 02:11:51 21° SSE
ADEOS Rocket 3.1 02:08:20 28° SSW 02:10:54 47° W 02:16:12 10° NNW
Meteor 1-21 4.3 02:05:27 10° N 02:11:15 84° E 02:16:48 11° S
Cosmos 2074 Rocket 4.3 02:09:08 28° SW 02:12:12 50° WNW 02:18:15 10° N
MSX 4.4 02:07:39 10° NNE 02:13:17 54° E 02:17:59 15° S
Cosmos 1908 Rocket 3.9 02:13:40 21° S 02:16:23 61° E 02:20:40 10° NNE
Cosmos 2297 Rocket 3.7 02:13:28 15° W 02:16:50 24° NW 02:21:26 10° N
NPP 4.4 02:12:04 10° N 02:17:02 39° WNW 02:19:38 24° WSW
Cosmos 1140 Rocket 3.7 02:14:51 23° S 02:18:06 67° ESE 02:23:20 10° NNE
Cosmos 2237 Rocket 3.8 02:17:46 10° WNW 02:21:02 16° W 02:21:04 16° W
Cosmos 1356 Rocket 3.3 02:20:09 27° S 02:22:16 83° E 02:26:18 10° NNE
SL-8 R/B 3.9 02:21:22 29° SSW 02:23:35 55° SSE 02:28:18 10° ENE
Cosmos 1733 Rocket 3.7 02:22:04 28° WSW 02:23:45 40° WNW 02:27:58 10° N
DELTA 2 DEB (DPAF) 4.1 02:22:42 20° S 02:25:44 67° WSW 02:30:10 10° NNW
NOSS 3-3 (A) 4.1 02:22:16 22° SSW 02:25:58 62° ESE 02:32:18 10° NE
NOSS 3-3 (C) 4.1 02:22:23 22° SSW 02:26:05 61° ESE 02:32:23 10° NE
Cosmos 2227 Rocket 3.6 02:24:05 15° W 02:27:33 26° NW 02:32:15 10° N
Cosmos 1603 4.4 02:22:52 10° NNW 02:28:25 55° ENE 02:33:56 10° SE
ARIANE 5 R/B 3.4 02:24:09 10° NNE 02:29:09 47° E 02:34:07 10° S
Cosmos 1674 4.1 02:26:49 10° N 02:30:26 38° ENE 02:34:01 10° SSE
IKONOS-2 4.5 02:27:27 11° SSE 02:31:34 89° W 02:35:51 10° NNW
SL-8 Rocket 4.3 02:26:27 10° S 02:32:32 65° E 02:38:38 10° NNE
Cosmos 44 3.9 02:28:20 10° NNW 02:33:36 65° NE 02:38:31 10° SE
CZ-2D R/B 3.6 02:31:17 10° NNW 02:35:25 23° WNW 02:38:25 15° WSW
EP 1 4.5 02:35:34 33° SW 02:36:51 87° NW 02:39:36 10° NE
ADEOS II 2.8 02:33:53 10° N 02:38:47 40° WNW 02:41:58 20° SW
SWARM A 4.4 02:40:28 27° SSW 02:42:02 54° W 02:45:18 10° N
Okean 2 3.8 02:38:20 10° NNW 02:42:20 46° W 02:44:58 19° SSW
IRS-1D 3.9 02:39:18 10° N 02:44:02 46° WNW 02:47:17 19° SW
Cosmos 2227 4.2 02:39:56 17° SSW 02:44:19 80° ESE 02:49:58 10° NNE
SL-16 R/B 3.1 02:40:22 10° NW 02:45:11 29° WSW 02:48:30 17° SSW
CZ-4C R/B 3.4 02:41:44 10° S 02:45:44 71° WSW 02:49:59 10° NNW
IRS-1C 4.2 02:40:58 10° NNE 02:46:21 83° ESE 02:51:22 12° SSW
CZ-4C R/B 3.0 02:39:32 10° NW 02:46:55 81° SW 02:55:25 10° SSE
CZ-2D R/B 4.1 02:47:36 10° NNE 02:51:30 50° E 02:55:27 10° S
Iridium 4 Rocket 4.4 02:47:20 10° NNW 02:52:22 37° W 02:56:32 15° SW
Cosmos 2263 Rocket 2.2 02:49:22 17° SSW 02:53:48 74° WNW 02:59:31 10° NNE
Cosmos 676 Rocket 4.3 02:51:25 11° S 02:56:30 71° ESE 03:01:50 10° NNE
Cosmos 2341 Rocket 4.1 02:51:57 13° SSW 02:57:38 66° W 03:03:50 10° N
Cosmos 1782 Rocket 3.5 02:54:46 12° S 02:58:51 85° WNW 03:03:14 10° N
Cosmos 2218 Rocket 4.1 02:54:03 10° S 03:00:27 88° E 03:06:49 10° N
CZ-2C R/B 4.4 02:59:57 10° NNE 03:03:17 31° E 03:06:37 10° SSE
Cosmos 407 Rocket 4.0 03:00:28 15° SW 03:04:33 46° WNW 03:09:38 10° N
GEOS 3 Rocket 3.6 03:02:47 10° SSE 03:08:08 76° SW 03:13:29 10° NW
Cosmos 1805 3.4 03:06:15 10° S 03:10:07 74° E 03:14:02 10° NNE
ATLAS CENTAUR R/B 1.1 03:09:13 14° SW 03:12:24 88° NW 03:16:23 10° NE
ALOS 3.5 03:10:10 10° NNE 03:14:36 41° E 03:19:00 10° SSE
KORONAS-FOTON 3.9 03:11:08 10° NNW 03:15:00 58° W 03:18:50 10° S
Cosmos 1346 Rocket 4.5 03:14:12 10° N 03:17:51 36° ENE 03:21:28 10° SE
USA 215 3.5 03:12:34 10° NE 03:19:06 69° SE 03:25:36 10° SW
Cosmos 1763 Rocket 4.1 03:13:53 10° NNW 03:19:12 63° ENE 03:24:26 10° SSE
Cosmos 1461 4.0 03:16:06 11° WSW 03:20:06 36° NW 03:24:14 10° NNE
SL-14 R/B 4.0 03:17:55 10° N 03:21:46 56° E 03:25:36 10° SSE
Cosmos 1707 4.2 03:19:07 10° NW 03:21:59 20° W 03:24:46 10° SW
SL-08 R/B 3.5 03:19:16 10° S 03:24:06 56° W 03:28:59 10° NNW
Cosmos 1943 3.3 03:19:38 10° NNW 03:25:12 56° WSW 03:30:45 10° S
Cosmos 1726 4.4 03:24:40 10° SE 03:27:40 25° E 03:30:43 10° NE
IDEFIX/ARIANE 42P 3.8 03:25:07 10° N 03:29:20 26° WNW 03:33:32 10° WSW
SL-24 R/B - RUBIN 2 3.7 03:28:58 10° NW 03:33:58 75° WSW 03:38:26 10° SSE
Cosmos 1733 3.3 03:34:21 10° SSW 03:38:09 59° W 03:41:57 10° N
Cosmos 1766 3.2 03:34:51 10° SSW 03:38:43 78° W 03:42:39 10° N
CZ-2C R/B 2.3 03:34:11 10° N 03:38:45 74° WNW 03:43:20 10° SSW
Cosmos 1300 Rocket 3.5 03:35:25 10° SSW 03:39:43 70° W 03:44:05 10° N
Cosmos 1470 4.5 03:36:22 10° SSE 03:39:57 35° E 03:43:33 10° NNE
